Voltar ao catálogo

CZ-4C DEB

AtivoSSO
NORAD 38659·DEBRIS·🇨🇳 China

Lançado Dec 15, 2009 de Taiyuan Satellite Launch Center

Loading…

Próximas Passagens (próximas 24 horas)

TLE

AtualizadoSource: Space-Track

Época: Sep 14, 2026, 03:03 UTC

1 38659U 09072G   26257.12774488  .00000272  00000-0  93123-3 0  9994
2 38659 100.7205 214.0697 0133841 270.4925 155.0014 13.05717618794438

Acompanhe CZ-4C DEB em tempo real com AllMySat

Download on the App Store